FW7253 Weather Reports


time (UTC)temp
F
wind
direction
speed
knots
gust
knots
rain 1hr
in
rain 24hr
in
rain mn
in
humidity
%
barometer
mb
20260904152035 60 219 0.9 2.6 0.00 0.08 0.08 73 997.9
20260904151552 59 211 0.9 3.5 0.00 0.08 0.08 76 997.8
20260904151033 59 195 1.7 4.3 0.00 0.08 0.08 75 997.9
20260904150534 59 207 1.7 4.3 0.00 0.08 0.08 75 997.9
20260904150054 59 167 2.6 4.3 0.00 0.08 0.08 76 997.8
20260904145532 59 197 0.9 2.6 0.00 0.08 0.08 76 998.0
20260904145035 59 117 0.0 1.7 0.00 0.08 0.08 76 997.9
20260904144554 59 137 0.0 2.6 0.00 0.08 0.08 75 997.9
20260904144033 59 198 0.0 3.5 0.00 0.08 0.08 76 997.8
20260904143534 59 129 1.7 3.5 0.00 0.08 0.08 76 997.9
20260904143052 59 113 1.7 2.6 0.00 0.08 0.08 74 997.9
20260904142538 59 0 1.7 2.6 0.00 0.08 0.08 75 997.9
20260904142034 59 124 0.9 1.7 0.00 0.08 0.08 74 997.9
20260904141622 59 77 0.0 1.7 0.00 0.08 0.08 74 997.9
20260904141031 59 224 0.0 2.6 0.00 0.08 0.08 75 997.9
20260904140531 59 103 0.0 4.3 0.00 0.08 0.08 75 997.9
20260904140106 60 105 1.7 4.3 0.00 0.08 0.08 74 997.9
20260904135532 60 129 0.9 2.6 0.00 0.08 0.08 73 997.8
20260904135035 61 154 0.0 4.3 0.00 0.08 0.08 72 998.0
20260904134558 63 150 0.9 4.3 0.00 0.08 0.08 73 997.9
20260904134032 62 95 1.7 3.5 0.00 0.08 0.08 72 998.0
20260904133534 61 95 0.9 2.6 0.00 0.08 0.08 75 998.1
20260904133106 60 136 0.9 6.1 0.00 0.08 0.08 77 998.1
20260904132535 60 111 1.7 6.1 0.00 0.08 0.08 77 998.1
20260904132032 59 100 1.7 6.1 0.00 0.08 0.08 78 998.2
20260904131555 59 136 0.0 3.5 0.00 0.08 0.08 77 998.3
20260904131031 59 101 0.0 3.5 0.00 0.08 0.08 77 998.3
20260904130531 59 107 1.7 3.5 0.00 0.08 0.08 79 998.4
20260904130054 59 129 0.0 4.3 0.00 0.08 0.08 77 998.5
20260904125533 59 0 0.0 4.3 0.00 0.08 0.08 77 998.5
20260904125037 59 217 1.7 3.5 0.00 0.08 0.08 77 998.6
20260904124549 59 0 0.9 1.7 0.00 0.08 0.08 78 998.6
20260904124034 59 0 0.0 2.6 0.00 0.08 0.08 79 998.7
20260904123535 58 150 1.7 2.6 0.00 0.08 0.08 79 998.7
20260904123047 58 143 0.0 3.5 0.00 0.08 0.08 79 998.7
20260904122533 58 0 0.9 3.5 0.00 0.08 0.08 77 998.8
20260904122031 58 108 0.9 2.6 0.00 0.08 0.08 77 998.7
20260904121556 58 123 0.9 2.6 0.00 0.08 0.08 78 998.6
20260904121031 58 288 0.0 0.9 0.00 0.08 0.08 79 998.7
20260904120545 58 184 0.0 1.7 0.00 0.08 0.08 80 998.7
20260904120047 58 148 0.0 1.7 0.00 0.08 0.08 80 998.8
20260904115534 57 121 0.9 1.7 0.00 0.08 0.08 81 998.9
20260904115031 57 129 0.0 0.9 0.00 0.08 0.08 81 998.9
20260904114549 57 110 0.0 1.7 0.00 0.08 0.08 81 999.0
20260904114034 57 0 0.9 1.7 0.00 0.08 0.08 81 999.0
20260904113532 57 136 0.0 1.7 0.00 0.08 0.08 81 999.0
20260904113046 57 293 0.0 1.7 0.00 0.08 0.08 81 999.0
20260904112531 57 0 0.0 0.9 0.00 0.08 0.08 82 999.1
20260904112035 57 0 0.0 1.7 0.00 0.08 0.08 82 999.0
20260904111548 56 0 0.9 1.7 0.00 0.08 0.08 82 999.0
20260904111031 57 345 0.0 2.6 0.00 0.08 0.08 82 998.9
20260904110534 57 340 0.9 3.5 0.00 0.08 0.08 81 999.1
20260904110052 57 343 0.9 3.5 0.00 0.08 0.08 80 999.0
20260904105532 57 0 1.7 4.3 0.00 0.08 0.08 81 999.0
20260904105031 57 331 1.7 4.3 0.00 0.08 0.08 81 999.1
20260904104551 57 23 0.9 4.3 0.00 0.08 0.08 80 999.1
20260904104030 56 335 0.9 3.5 0.00 0.08 0.08 81 999.1
20260904103530 56 327 1.7 5.2 0.00 0.08 0.08 82 999.2
20260904103051 56 309 3.5 5.2 0.00 0.08 0.08 82 999.2
20260904102532 57 342 1.7 5.2 0.00 0.08 0.08 82 999.2
20260904102032 56 350 2.6 5.2 0.00 0.08 0.08 83 999.2
20260904101546 56 336 3.5 5.2 0.00 0.08 0.08 82 999.2
20260904101032 57 301 2.6 5.2 0.00 0.08 0.08 83 999.3
20260904100531 57 352 2.6 5.2 0.00 0.08 0.08 81 999.2
20260904100054 57 335 0.9 4.3 0.00 0.08 0.08 85 999.3
20260904095532 57 262 1.7 7.0 0.00 0.08 0.08 87 999.4
20260904095031 55 68 2.6 7.0 0.00 0.08 0.08 87 999.4
20260904094549 55 39 2.6 5.2 0.00 0.08 0.08 87 999.5
20260904094034 54 340 2.6 5.2 0.00 0.08 0.08 89 999.5
20260904093534 54 2 3.5 5.2 0.00 0.08 0.08 90 999.6
20260904093051 54 319 3.5 7.0 0.00 0.08 0.08 91 999.8
20260904092531 53 349 3.5 7.0 0.00 0.08 0.08 91 999.7
20260904092031 53 338 3.5 7.0 0.00 0.08 0.08 91 999.8
20260904091544 53 304 3.5 7.0 0.00 0.08 0.08 92 999.9
20260904091035 53 337 5.2 7.0 0.00 0.08 0.08 92 1000.0
20260904090535 53 334 3.5 6.1 0.00 0.08 0.08 92 999.8
20260904090053 52 335 4.3 8.7 0.00 0.08 0.08 92 999.8
20260904085531 52 342 5.2 8.7 0.00 0.08 0.08 92 1000.0
20260904085034 52 347 3.5 7.8 0.00 0.08 0.08 92 1000.0
20260904084548 52 323 3.5 7.8 0.00 0.08 0.08 92 999.8
20260904084030 52 354 5.2 7.8 0.00 0.08 0.08 92 999.8
20260904083532 52 310 3.5 7.8 0.00 0.08 0.08 92 999.9
20260904083053 53 347 4.3 7.8 0.00 0.08 0.08 92 999.7
20260904082533 53 327 3.5 8.7 0.00 0.08 0.08 91 999.7
20260904082032 53 328 3.5 8.7 0.00 0.08 0.08 91 999.7
20260904081551 53 341 5.2 8.7 0.00 0.08 0.08 91 999.7
20260904081033 53 329 3.5 5.2 0.00 0.08 0.08 91 999.7
20260904080533 53 359 2.6 7.0 0.00 0.08 0.08 91 999.7
20260904080053 53 349 3.5 7.0 0.00 0.08 0.08 91 999.8
20260904075534 53 323 3.5 7.0 0.00 0.08 0.08 91 999.7
20260904075032 53 20 3.5 6.1 0.00 0.08 0.08 91 999.8
20260904074546 53 316 2.6 6.1 0.00 0.08 0.08 92 999.8
20260904074033 52 358 2.6 5.2 0.00 0.08 0.08 92 999.8
20260904073533 52 4 3.5 6.1 0.00 0.08 0.08 92 999.8
20260904073056 52 328 3.5 6.1 0.00 0.08 0.08 92 999.8
20260904072534 52 38 3.5 6.1 0.00 0.08 0.08 92 999.9
20260904072033 52 16 1.7 4.3 0.00 0.08 0.08 92 1000.0
20260904071552 52 327 2.6 6.1 0.00 0.08 0.08 92 999.8
20260904071037 52 308 2.6 7.0 0.00 0.08 0.08 92 999.8
20260904070533 52 357 2.6 7.0 0.00 0.08 0.08 93 1000.0
20260904070049 51 328 3.5 7.0 0.00 0.08 0.08 93 1000.0
20260904065533 51 339 3.5 7.0 0.00 0.08 0.08 93 1000.0
20260904065032 51 338 3.5 5.2 0.00 0.08 0.08 93 1000.1
20260904064557 51 345 2.6 5.2 0.00 0.08 0.08 93 1000.1
20260904064033 51 326 3.5 6.1 0.00 0.08 0.08 93 1000.2
20260904063533 51 339 3.5 6.1 0.00 0.08 0.08 93 1000.2
20260904063052 51 341 3.5 6.1 0.00 0.08 0.08 93 1000.1
20260904062532 51 335 3.5 6.1 0.00 0.08 0.08 93 1000.2
20260904062034 51 10 3.5 6.1 0.00 0.08 0.08 93 1000.2
20260904061550 50 338 2.6 5.2 0.00 0.08 0.08 93 1000.4
20260904061033 50 343 2.6 5.2 0.00 0.08 0.08 93 1000.3
20260904060533 50 352 3.5 5.2 0.00 0.08 0.08 93 1000.4
20260904060047 50 22 3.5 5.2 0.00 0.08 0.08 93 1000.6
20260904055532 50 13 1.7 4.3 0.00 0.08 0.08 93 1000.7
20260904055032 50 349 2.6 4.3 0.00 0.08 0.08 93 1000.4
20260904054553 50 333 1.7 4.3 0.00 0.08 0.08 93 1000.6
20260904054032 50 331 1.7 5.2 0.00 0.08 0.08 93 1000.5
20260904053534 50 328 1.7 5.2 0.00 0.08 0.08 93 1000.5
20260904053051 50 38 2.6 6.1 0.00 0.08 0.08 93 1000.5
20260904052531 50 334 2.6 6.1 0.00 0.08 0.08 93 1000.5
20260904052034 50 360 2.6 4.3 0.00 0.08 0.08 93 1000.7
20260904051548 50 5 2.6 4.3 0.00 0.08 0.08 93 1000.6
20260904051030 50 354 2.6 4.3 0.00 0.08 0.08 93 1000.7
20260904050530 50 347 2.6 6.1 0.00 0.08 0.08 93 1000.7
20260904050056 50 347 3.5 6.1 0.00 0.08 0.08 93 1000.7
20260904045532 50 347 3.5 6.1 0.00 0.08 0.08 93 1000.7
20260904045032 50 345 3.5 6.1 0.00 0.08 0.08 93 1000.6
20260904044557 50 10 3.5 6.1 0.00 0.08 0.08 93 1000.8
20260904044034 50 336 2.6 6.1 0.00 0.08 0.08 93 1000.8
20260904043535 50 1 2.6 5.2 0.00 0.08 0.08 94 1000.8
20260904043046 50 9 2.6 4.3 0.00 0.08 0.08 93 1000.8
20260904042530 50 328 0.9 2.6 0.00 0.08 0.08 93 1000.8
20260904042035 50 13 0.9 5.2 0.00 0.08 0.08 93 1000.8
20260904041552 50 11 1.7 5.2 0.00 0.08 0.08 93 1000.7
20260904041033 50 358 2.6 5.2 0.00 0.08 0.08 94 1000.9
20260904040536 50 338 1.7 3.5 0.00 0.08 0.08 94 1000.9
20260904040057 50 338 1.7 3.5 0.00 0.08 0.08 94 1000.9
20260904035534 50 14 1.7 3.5 0.00 0.08 0.08 94 1000.9
20260904035032 50 336 0.9 2.6 0.00 0.08 0.08 93 1001.0
20260904034601 50 330 0.0 1.7 0.00 0.08 0.08 93 1000.9
20260904034033 50 0 0.0 0.9 0.00 0.08 0.08 93 1001.0
20260904033534 50 0 0.0 2.6 0.00 0.08 0.08 94 1001.1
20260904033055 50 0 0.0 2.6 0.00 0.08 0.08 93 1001.1
20260904032530 50 1 0.0 4.3 0.01 0.08 0.08 94 1001.2
20260904032030 50 343 0.9 4.3 0.01 0.08 0.08 94 1001.2
20260904031552 50 359 2.6 4.3 0.01 0.08 0.08 94 1001.2
20260904031033 50 335 2.6 4.3 0.01 0.08 0.08 94 1001.2
20260904030534 50 334 2.6 4.3 0.02 0.08 0.08 94 1001.3
20260904030050 50 342 1.7 3.5 0.02 0.08 0.08 94 1001.4
20260904025536 50 328 1.7 3.5 0.03 0.08 0.08 94 1001.4
20260904025035 50 350 1.7 3.5 0.02 0.07 0.07 94 1001.5
20260904024550 50 359 1.7 3.5 0.03 0.07 0.07 94 1001.6
20260904024033 50 29 1.7 3.5 0.03 0.07 0.07 94 1001.6
20260904023536 50 4 0.9 2.6 0.03 0.07 0.07 94 1001.6
20260904023055 50 333 1.7 2.6 0.03 0.07 0.07 94 1001.8
20260904022532 50 353 1.7 3.5 0.03 0.07 0.07 94 1001.8
20260904022034 50 345 1.7 3.5 0.03 0.07 0.07 94 1001.9
20260904021552 50 330 2.6 3.5 0.03 0.07 0.07 94 1001.7
20260904021031 50 322 1.7 3.5 0.04 0.07 0.07 94 1001.8
20260904020533 50 7 0.9 3.5 0.03 0.06 0.06 94 1001.8
20260904020052 50 6 0.0 0.9 0.03 0.06 0.06 94 1001.8
20260904015530 50 0 0.0 0.9 0.03 0.05 0.05 93 1001.9
20260904015032 50 0 0.0 0.9 0.03 0.05 0.05 93 1002.1
20260904014557 50 0 0.0 0.0 0.03 0.04 0.04 93 1001.9
20260904014031 50 0 0.0 0.9 0.03 0.04 0.04 93 1002.1
20260904013535 50 0 0.0 0.9 0.03 0.04 0.04 93 1002.1
20260904013052 50 0 0.0 0.9 0.02 0.03 0.03 93 1002.2
20260904012536 50 0 0.0 0.0 0.02 0.03 0.03 93 1002.1
20260904012034 50 0 0.0 0.0 0.03 0.03 0.03 93 1002.1
20260904011556 50 0 0.0 0.0 0.03 0.03 0.03 93 1002.3
20260904011035 50 0 0.0 0.0 0.02 0.02 0.02 92 1002.3
20260904010538 50 0 0.0 0.0 0.02 0.02 0.02 92 1002.4
20260904010049 50 0 0.0 0.0 0.02 0.02 0.02 92 1002.4
20260904005533 51 0 0.0 3.5 0.02 0.02 0.02 92 1002.3
20260904005035 51 0 0.0 3.5 0.01 0.01 0.01 92 1002.3
20260904004552 51 342 1.7 3.5 0.01 0.01 0.01 92 1002.2
20260904004034 51 0 0.0 4.3 0.01 0.01 0.01 92 1002.3
20260904003538 51 0 0.0 4.3 0.01 0.01 0.01 92 1002.4
20260904003047 51 0 1.7 4.3 0.01 0.01 0.01 92 1002.6
20260904002531 51 331 0.0 3.5 0.00 0.00 0.00 92 1002.5
20260904002031 51 0 0.0 2.6 0.00 0.00 0.00 92 1002.6
20260904001546 51 0 0.0 3.5 0.00 0.00 0.00 92 1002.7
20260904001034 51 10 1.7 3.5 0.00 0.00 0.00 92 1002.7
20260904000534 51 358 1.7 3.5 0.00 0.00 0.00 93 1002.8
20260904000048 51 347 1.7 3.5 0.00 0.00 0.00 93 1002.9
20260903235534 51 339 1.7 3.5 0.00 0.00 0.00 93 1002.8
20260903235038 50 2 0.0 0.9 0.00 0.00 0.00 93 1002.9
20260903234548 50 0 0.0 0.0 0.00 0.00 0.00 93 1002.9
20260903234031 50 0 0.0 0.0 0.00 0.00 0.00 93 1002.9
20260903233535 50 0 0.0 0.0 0.00 0.00 0.00 93 1003.0
20260903233046 50 0 0.0 0.0 0.00 0.00 0.00 93 1003.1
20260903232530 50 0 0.0 0.0 0.00 0.00 0.00 92 1003.1
20260903232030 50 0 0.0 0.0 0.00 0.00 0.00 92 1003.0
20260903231604 50 0 0.0 0.0 0.00 0.00 0.00 92 1003.1
20260903231034 50 0 0.0 0.0 0.00 0.00 0.00 92 1003.1
20260903230532 51 0 0.0 0.0 0.00 0.00 0.00 92 1003.2
20260903230048 51 0 0.0 0.0 0.00 0.00 0.00 92 1003.2
20260903225534 51 0 0.0 0.0 0.00 0.00 0.00 92 1003.5
20260903225031 51 0 0.0 0.0 0.00 0.00 0.00 92 1003.3
20260903224545 51 0 0.0 0.0 0.00 0.00 0.00 92 1003.4
20260903224034 51 0 0.0 0.0 0.00 0.00 0.00 92 1003.5
20260903223531 51 0 0.0 0.0 0.00 0.00 0.00 92 1003.4
20260903223105 51 0 0.0 0.0 0.00 0.00 0.00 92 1003.3
20260903222530 51 0 0.0 0.0 0.00 0.00 0.00 91 1003.5
20260903222033 51 0 0.0 0.0 0.00 0.00 0.00 91 1003.5
20260903221550 51 0 0.0 0.0 0.00 0.00 0.00 91 1003.5
20260903221033 51 0 0.0 0.0 0.00 0.00 0.00 91 1003.5
20260903220534 51 0 0.0 0.0 0.00 0.00 0.00 91 1003.5
20260903215537 51 0 0.0 0.0 0.00 0.00 0.00 91 1003.6
20260903215030 51 0 0.0 0.0 0.00 0.00 0.00 91 1003.7
20260903214555 51 0 0.0 0.0 0.00 0.00 0.00 90 1003.7
20260903214033 51 0 0.0 0.0 0.00 0.00 0.00 90 1003.7
20260903213532 52 0 0.0 0.0 0.00 0.00 0.00 90 1003.7
20260903213051 51 0 0.0 0.0 0.00 0.00 0.00 90 1003.7
20260903212533 51 0 0.0 0.0 0.00 0.00 0.00 90 1003.8
20260903212035 51 0 0.0 0.0 0.00 0.00 0.00 89 1003.7
20260903211549 51 0 0.0 0.0 0.00 0.00 0.00 89 1003.8
20260903211033 51 0 0.0 0.0 0.00 0.00 0.00 89 1003.9
20260903210538 51 0 0.0 0.0 0.00 0.00 0.00 88 1003.9
20260903210046 52 0 0.0 0.0 0.00 0.00 0.00 88 1003.8
20260903205531 52 0 0.0 0.0 0.00 0.00 0.00 87 1003.8
20260903205031 52 0 0.0 0.0 0.00 0.00 0.00 87 1003.8
20260903204559 52 0 0.0 0.0 0.00 0.00 0.00 87 1003.9
20260903204030 52 0 0.0 0.0 0.00 0.00 0.00 86 1004.0
20260903203533 52 0 0.0 0.0 0.00 0.00 0.00 86 1004.0
20260903203048 52 0 0.0 0.0 0.00 0.00 0.00 86 1004.0
20260903202536 52 0 0.0 0.0 0.00 0.00 0.00 86 1004.0
20260903202034 52 0 0.0 0.0 0.00 0.00 0.00 85 1004.0
20260903201548 52 0 0.0 0.0 0.00 0.00 0.00 85 1004.0
20260903201037 52 0 0.0 0.0 0.00 0.00 0.00 85 1004.2
20260903200531 52 0 0.0 0.0 0.00 0.00 0.00 85 1004.4
20260903200054 52 0 0.0 0.0 0.00 0.00 0.00 84 1004.5
20260903195532 52 0 0.0 0.0 0.00 0.00 0.00 83 1004.5
20260903195034 53 0 0.0 0.0 0.00 0.00 0.00 83 1004.5
20260903194552 53 0 0.0 0.0 0.00 0.00 0.00 83 1004.5
20260903194033 53 0 0.0 0.0 0.00 0.00 0.00 82 1004.6
20260903193531 54 0 0.0 0.9 0.00 0.00 0.00 82 1004.5
20260903193048 54 0 0.0 0.9 0.00 0.00 0.00 82 1004.5
20260903192534 54 0 0.0 0.9 0.00 0.00 0.00 82 1004.5
20260903192033 54 94 0.0 0.9 0.00 0.00 0.00 82 1004.5
20260903191601 54 94 0.0 1.7 0.00 0.00 0.00 81 1004.5
20260903191032 54 0 0.0 1.7 0.00 0.00 0.00 81 1004.6
20260903190532 54 158 0.0 1.7 0.00 0.00 0.00 81 1004.4
20260903190053 54 160 0.0 1.7 0.00 0.00 0.00 80 1004.5
20260903185532 54 0 0.0 0.9 0.00 0.00 0.00 80 1004.5
20260903185032 54 158 0.0 0.9 0.00 0.00 0.00 79 1004.6
20260903184552 54 0 0.0 0.9 0.00 0.00 0.00 79 1004.7
20260903184032 54 0 0.0 0.9 0.00 0.00 0.00 78 1004.8
20260903183534 54 0 0.0 0.9 0.00 0.00 0.00 78 1004.8
20260903183108 54 91 0.0 0.9 0.00 0.00 0.00 77 1004.8
20260903182532 54 0 0.0 0.0 0.00 0.00 0.00 77 1004.8
20260903182033 54 0 0.0 0.0 0.00 0.00 0.00 76 1004.8
20260903181547 55 0 0.0 0.0 0.00 0.00 0.00 74 1004.9
20260903181031 55 0 0.0 0.9 0.00 0.00 0.00 74 1004.8
20260903180532 55 0 0.0 1.7 0.00 0.00 0.00 73 1004.9
20260903180054 55 0 0.0 1.7 0.00 0.00 0.00 72 1004.9
20260903175532 55 0 0.0 1.7 0.00 0.00 0.00 71 1005.0
20260903175034 56 160 0.0 1.7 0.00 0.00 0.00 70 1005.0
20260903174548 56 147 0.9 1.7 0.00 0.00 0.00 70 1005.0
20260903174032 56 176 0.0 1.7 0.00 0.00 0.00 70 1004.9
20260903173531 56 161 0.0 0.9 0.00 0.00 0.00 69 1004.9
20260903173107 56 0 0.0 0.9 0.00 0.00 0.00 68 1004.9
20260903172532 56 0 0.0 1.7 0.00 0.00 0.00 68 1004.9
20260903172031 56 0 0.0 3.5 0.00 0.00 0.00 66 1004.9
20260903171600 56 193 0.9 3.5 0.00 0.00 0.00 66 1004.9
20260903171032 57 161 0.9 3.5 0.00 0.00 0.00 65 1004.9
20260903170533 57 198 0.0 1.7 0.00 0.00 0.00 64 1004.9
20260903170048 57 0 0.0 1.7 0.00 0.00 0.00 64 1004.9
20260903165532 57 186 0.0 3.5 0.00 0.00 0.00 64 1005.0
20260903165033 57 0 0.0 3.5 0.00 0.00 0.00 63 1005.1
20260903164557 57 122 0.9 3.5 0.00 0.00 0.00 63 1005.1
20260903164032 57 209 0.9 3.5 0.00 0.00 0.00 63 1005.2
20260903163531 57 173 1.7 5.2 0.00 0.00 0.00 63 1005.2
20260903163052 58 153 0.0 5.2 0.00 0.00 0.00 62 1005.2
20260903162532 58 157 1.7 5.2 0.00 0.00 0.00 62 1005.2
20260903162031 58 164 0.9 5.2 0.00 0.00 0.00 62 1005.2
20260903161606 58 138 1.7 5.2 0.00 0.00 0.00 62 1005.3
20260903161034 58 155 1.7 4.3 0.00 0.00 0.00 61 1005.4
20260903160533 58 155 1.7 7.0 0.00 0.00 0.00 62 1005.5
20260903160055 58 160 3.5 7.0 0.00 0.00 0.00 61 1005.3
20260903155536 58 211 3.5 7.0 0.00 0.00 0.00 61 1005.4
20260903155031 59 150 1.7 6.1 0.00 0.00 0.00 62 1005.5
20260903154555 59 176 1.7 6.1 0.00 0.00 0.00 61 1005.5
20260903154032 59 152 3.5 9.6 0.00 0.00 0.00 60 1005.6
20260903153530 59 167 4.3 9.6 0.00 0.00 0.00 59 1005.6
20260903153059 59 169 5.2 7.8 0.00 0.00 0.00 59 1005.7
20260903152532 59 165 3.5 6.1 0.00 0.00 0.00 60 1005.7